NOAA 16 DEB, 41284

Orbit data source: Space-Track

NOAA 16 DEB, 41284 is space debris in SSO originally from a launch on Thu, 21 Sep 2000 UTC launched from the Air Force Western Test Range (AFWTR). Debris objects in space refer to the collection of defunct objects orbiting the Earth. Examples of debris include non-operational satellites, rocket bodies, and fragments generated from explosions, collisions, or faulty payload assembly.

Loading next visibility...
Identifier
41284, 2000-055GL
Orbit
SSO
Country
Flag of USUS
Related business
Manufacturer
Unknown
Mission
Spacecraft
Bus & Motor
Unknown
Mass
Unknown
Launch date (UTC)
2000-09-21 (26 years ago)
Launch vehicle
Unknown
Launch site
Air Force Western Test Range (AFWTR)
Object type
Payload
Rocket body
Debris
Shape & HBR
Unknown shape, 0.1 m
Radar Cross Section
Medium (>0.1 m² and <1 m²)

Expand to show TLE details & history
Last TLE update: 6 days ago

TLE from 6 days ago
0 NOAA 16 DEB
1 41284U 00055GL  26250.34545380  .00001741  00000-0  10171-2 0  9991
2 41284  98.8618 215.4297 0073411 230.4350 129.0320 14.08374778545767
Epoch: 2026-09-07T08:17Z
TLE epoch observation values (Epoch: 2026-09-07T08:17:27.208Z)
Latitude
0.00004°
Longitude
104.63878°
Altitude
901.558 km
Speed
7.384 km/s
True Right ascension
14h 21m 43s
True Declination
0° 00' 00"
Sunlit
Object was in daylight at epoch
Visualization orbit readout
Latitude
Unknown
Longitude
Unknown
Altitude
Unknown
Speed
Unknown
Apparent Right ascension
Unknown
Apparent Declination
Unknown
Sunlit
N/A
Visualization observer readout
Local Sidereal Time
18:35:02
Azimuth
Unknown
Elevation
Unknown
Doppler factor
Unknown
Orbital elements
Apogee altitude
915.271 km
Perigee altitude
808.968 km
Semi-major axis
7,240.257 km
Eccentricity
0.00734
Inclination
98.8618°
RAAN
215.4297°
Arg. of periapsis
230.435°
True anomaly
129.68169°
Mean anomaly
129.032°
Eccentric anomaly
129.35722°
Mean motion
3.523 °/min
Orbital period
102.19 mins
BSTAR
0.0010171
Loading maneuver chart data...
Computing Atmospheric mass density...
Loading historical data...
Loading historical data...
Loading historical data...
Loading historical data...
Loading historical data...
Loading historical data...
Loading historical data...

Documentation

Showing up to 5 results
|